Location: Ebersheim
(48.3033°N, 7.4991°E)
Time: 04:05:36
(UTC+00:00)

Meteor 2-4 Rocket - Pass Details

Date: 27 February 2020
Orbit: 799 x 908 km, 81.2° (Epoch: 02 April)

Event Time Altitude Azimuth Distance (km) Brightness Sun altitude
Rises 18:48:30 0° 349° (N) 3,530 7.2 -17.1°
Reaches altitude 10° 18:50:59 10° 352° (N) 2,593 6.4 -17.5°
Maximum altitude 18:56:55 71° 77° (ENE) 962 3.8 -18.5°
Drops below altitude 10° 19:02:49 10° 161° (SSE) 2,583 5.9 -19.5°
Enters shadow 19:03:43 - 162° (SSE) 2,923 6.2 -19.6°
